| time (UTC) | temp C | wind direction | speed KPH | gust KPH | rain 1hr cm | rain 24hr cm | rain mn cm | humidity % | barometer mb |
| 20260505153101 | 16 | 20 | 4.8 | 19.3 | 0.00 | 0.00 | 0.00 | 55 | 1012.1 |
| 20260505152537 | 16 | 319 | 4.8 | 19.3 | 0.00 | 0.00 | 0.00 | 56 | 1012.2 |
| 20260505152037 | 17 | 22 | 3.2 | 19.3 | 0.00 | 0.00 | 0.00 | 55 | 1012.1 |
| 20260505151549 | 16 | 54 | 0.0 | 16.1 | 0.00 | 0.00 | 0.00 | 56 | 1012.1 |
| 20260505151039 | 16 | 0 | 6.4 | 16.1 | 0.00 | 0.00 | 0.00 | 55 | 1012.1 |
| 20260505150537 | 16 | 37 | 6.4 | 19.3 | 0.00 | 0.00 | 0.00 | 55 | 1012.2 |
| 20260505140536 | 16 | 337 | 9.7 | 22.5 | 0.00 | 0.00 | 0.00 | 54 | 1012.3 |
| 20260505125037 | 17 | 50 | 4.8 | 22.5 | 0.00 | 0.00 | 0.00 | 52 | 1012.4 |
| 20260505124543 | 17 | 319 | 11.3 | 22.5 | 0.00 | 0.00 | 0.00 | 52 | 1012.4 |
| 20260505124036 | 17 | 306 | 4.8 | 29.0 | 0.00 | 0.00 | 0.00 | 52 | 1012.5 |
| 20260505123539 | 17 | 12 | 8.0 | 29.0 | 0.00 | 0.00 | 0.00 | 52 | 1012.5 |
| 20260505123057 | 17 | 355 | 9.7 | 19.3 | 0.00 | 0.00 | 0.00 | 50 | 1012.5 |
| 20260505122536 | 18 | 330 | 6.4 | 24.1 | 0.00 | 0.00 | 0.00 | 50 | 1012.5 |
| 20260505122037 | 18 | 5 | 9.7 | 24.1 | 0.00 | 0.00 | 0.00 | 51 | 1012.5 |
| 20260505121547 | 18 | 60 | 9.7 | 20.9 | 0.00 | 0.00 | 0.00 | 51 | 1012.6 |
| 20260505121040 | 18 | 27 | 9.7 | 20.9 | 0.00 | 0.00 | 0.00 | 53 | 1012.6 |
| 20260505120536 | 18 | 36 | 12.9 | 20.9 | 0.00 | 0.00 | 0.00 | 53 | 1012.5 |
| 20260505120056 | 18 | 40 | 4.8 | 19.3 | 0.00 | 0.00 | 0.00 | 53 | 1012.5 |
| 20260505115537 | 18 | 340 | 6.4 | 22.5 | 0.00 | 0.00 | 0.00 | 54 | 1012.6 |
| 20260505115036 | 18 | 5 | 8.0 | 22.5 | 0.00 | 0.00 | 0.00 | 55 | 1012.6 |
| 20260505114551 | 17 | 351 | 8.0 | 22.5 | 0.00 | 0.00 | 0.00 | 56 | 1012.5 |
| 20260505114037 | 17 | 27 | 9.7 | 19.3 | 0.00 | 0.00 | 0.00 | 57 | 1012.7 |
| 20260505113539 | 17 | 86 | 9.7 | 22.5 | 0.00 | 0.00 | 0.00 | 59 | 1012.7 |
| 20260505113051 | 17 | 339 | 8.0 | 22.5 | 0.00 | 0.00 | 0.00 | 59 | 1012.7 |
| 20260505112536 | 16 | 60 | 9.7 | 22.5 | 0.00 | 0.00 | 0.00 | 59 | 1012.6 |
| 20260505112036 | 16 | 17 | 9.7 | 20.9 | 0.00 | 0.00 | 0.00 | 60 | 1012.8 |
| 20260505111546 | 16 | 53 | 8.0 | 27.4 | 0.00 | 0.00 | 0.00 | 61 | 1012.7 |
| 20260505111036 | 16 | 32 | 11.3 | 27.4 | 0.00 | 0.00 | 0.00 | 59 | 1012.8 |
| 20260505110535 | 17 | 47 | 6.4 | 20.9 | 0.00 | 0.00 | 0.00 | 58 | 1012.8 |
| 20260505102037 | 15 | 5 | 9.7 | 20.9 | 0.00 | 0.00 | 0.00 | 64 | 1013.1 |
| 20260505101543 | 15 | 69 | 6.4 | 19.3 | 0.00 | 0.00 | 0.00 | 60 | 1013.1 |
| 20260505101036 | 15 | 22 | 11.3 | 19.3 | 0.00 | 0.00 | 0.00 | 61 | 1013.1 |
| 20260505100536 | 15 | 17 | 9.7 | 19.3 | 0.00 | 0.00 | 0.00 | 61 | 1013.1 |
| 20260505100048 | 15 | 66 | 8.0 | 19.3 | 0.00 | 0.00 | 0.00 | 60 | 1013.2 |
| 20260505095536 | 15 | 26 | 9.7 | 24.1 | 0.00 | 0.00 | 0.00 | 60 | 1013.2 |
| 20260505095036 | 15 | 10 | 9.7 | 24.1 | 0.00 | 0.00 | 0.00 | 61 | 1013.1 |
| 20260505094549 | 15 | 19 | 9.7 | 25.7 | 0.00 | 0.00 | 0.00 | 62 | 1013.2 |
| 20260505094036 | 15 | 42 | 12.9 | 25.7 | 0.00 | 0.00 | 0.00 | 64 | 1013.1 |
| 20260505093536 | 15 | 5 | 9.7 | 17.7 | 0.00 | 0.00 | 0.00 | 64 | 1013.3 |
| 20260505093046 | 15 | 30 | 8.0 | 17.7 | 0.00 | 0.00 | 0.00 | 63 | 1013.3 |
| 20260505092537 | 15 | 63 | 9.7 | 22.5 | 0.00 | 0.00 | 0.00 | 62 | 1013.2 |
| 20260505092036 | 15 | 30 | 8.0 | 22.5 | 0.00 | 0.00 | 0.00 | 62 | 1013.3 |
| 20260505091601 | 15 | 48 | 11.3 | 20.9 | 0.00 | 0.00 | 0.00 | 64 | 1013.3 |
| 20260505091037 | 15 | 350 | 8.0 | 20.9 | 0.00 | 0.00 | 0.00 | 66 | 1013.4 |
| 20260505090537 | 14 | 46 | 11.3 | 20.9 | 0.00 | 0.00 | 0.00 | 65 | 1013.4 |
| 20260505090055 | 14 | 32 | 9.7 | 20.9 | 0.00 | 0.00 | 0.00 | 67 | 1013.3 |
| 20260505085537 | 14 | 28 | 8.0 | 20.9 | 0.00 | 0.00 | 0.00 | 68 | 1013.3 |
| 20260505085036 | 14 | 31 | 8.0 | 19.3 | 0.00 | 0.00 | 0.00 | 68 | 1013.4 |
| 20260505084601 | 14 | 55 | 8.0 | 19.3 | 0.00 | 0.00 | 0.00 | 68 | 1013.4 |
| 20260505084037 | 14 | 38 | 8.0 | 19.3 | 0.00 | 0.00 | 0.00 | 68 | 1013.4 |
| 20260505083533 | 13 | 355 | 6.4 | 17.7 | 0.00 | 0.00 | 0.00 | 70 | 1013.5 |
| 20260505083103 | 13 | 63 | 6.4 | 17.7 | 0.00 | 0.00 | 0.00 | 70 | 1013.4 |
| 20260505082537 | 13 | 43 | 8.0 | 24.1 | 0.00 | 0.00 | 0.00 | 70 | 1013.5 |
| 20260505082037 | 13 | 37 | 8.0 | 24.1 | 0.00 | 0.00 | 0.00 | 70 | 1013.5 |
| 20260505081557 | 13 | 30 | 8.0 | 22.5 | 0.00 | 0.00 | 0.00 | 70 | 1013.5 |
| 20260505081037 | 13 | 22 | 8.0 | 22.5 | 0.00 | 0.00 | 0.00 | 69 | 1013.6 |
| 20260505080537 | 13 | 17 | 8.0 | 19.3 | 0.00 | 0.00 | 0.00 | 69 | 1013.5 |
| 20260505080057 | 13 | 24 | 9.7 | 24.1 | 0.00 | 0.00 | 0.00 | 68 | 1013.6 |
| 20260505075534 | 13 | 355 | 9.7 | 24.1 | 0.00 | 0.00 | 0.00 | 68 | 1013.5 |
| 20260505075034 | 13 | 50 | 11.3 | 22.5 | 0.00 | 0.00 | 0.00 | 67 | 1013.5 |
| 20260505074548 | 14 | 41 | 12.9 | 22.5 | 0.00 | 0.00 | 0.00 | 67 | 1013.6 |
| 20260505074034 | 14 | 74 | 8.0 | 20.9 | 0.00 | 0.00 | 0.00 | 68 | 1013.4 |
| 20260505073535 | 14 | 11 | 8.0 | 20.9 | 0.00 | 0.00 | 0.00 | 67 | 1013.3 |
| 20260505073054 | 13 | 46 | 8.0 | 20.9 | 0.00 | 0.00 | 0.00 | 68 | 1013.4 |
| 20260505072536 | 13 | 34 | 8.0 | 19.3 | 0.00 | 0.00 | 0.00 | 69 | 1013.4 |
| 20260505072036 | 13 | 9 | 4.8 | 20.9 | 0.00 | 0.00 | 0.00 | 69 | 1013.4 |
| 20260505071549 | 13 | 55 | 8.0 | 20.9 | 0.00 | 0.00 | 0.00 | 69 | 1013.4 |
| 20260505071037 | 13 | 96 | 4.8 | 16.1 | 0.00 | 0.00 | 0.00 | 71 | 1013.4 |
| 20260505070535 | 13 | 25 | 6.4 | 16.1 | 0.00 | 0.00 | 0.00 | 72 | 1013.4 |
| 20260505070052 | 13 | 19 | 6.4 | 17.7 | 0.00 | 0.00 | 0.00 | 73 | 1013.4 |
| 20260505065537 | 13 | 30 | 8.0 | 17.7 | 0.00 | 0.00 | 0.00 | 74 | 1013.5 |
| 20260505065036 | 13 | 49 | 6.4 | 17.7 | 0.00 | 0.00 | 0.00 | 75 | 1013.5 |
| 20260505064545 | 12 | 38 | 8.0 | 17.7 | 0.00 | 0.00 | 0.00 | 75 | 1013.6 |
| 20260505064038 | 12 | 46 | 6.4 | 19.3 | 0.00 | 0.00 | 0.00 | 76 | 1013.5 |
| 20260505063536 | 12 | 355 | 4.8 | 19.3 | 0.00 | 0.00 | 0.00 | 77 | 1013.5 |
| 20260505063052 | 12 | 65 | 4.8 | 14.5 | 0.00 | 0.00 | 0.00 | 77 | 1013.6 |
| 20260505062534 | 12 | 43 | 4.8 | 14.5 | 0.00 | 0.00 | 0.00 | 78 | 1013.5 |
| 20260505062034 | 12 | 30 | 4.8 | 17.7 | 0.00 | 0.00 | 0.00 | 79 | 1013.5 |
| 20260505061546 | 11 | 16 | 8.0 | 17.7 | 0.00 | 0.00 | 0.00 | 80 | 1013.4 |
| 20260505061034 | 11 | 36 | 6.4 | 14.5 | 0.00 | 0.00 | 0.00 | 80 | 1013.5 |
| 20260505060537 | 11 | 341 | 4.8 | 11.3 | 0.00 | 0.00 | 0.00 | 80 | 1013.4 |
| 20260505060101 | 11 | 42 | 4.8 | 9.7 | 0.00 | 0.00 | 0.00 | 80 | 1013.4 |
| 20260505055537 | 11 | 50 | 4.8 | 11.3 | 0.00 | 0.00 | 0.00 | 81 | 1013.5 |
| 20260505055034 | 11 | 43 | 4.8 | 11.3 | 0.00 | 0.00 | 0.00 | 81 | 1013.4 |
| 20260505054553 | 11 | 65 | 1.6 | 14.5 | 0.00 | 0.00 | 0.00 | 81 | 1013.5 |
| 20260505054039 | 11 | 32 | 3.2 | 14.5 | 0.00 | 0.00 | 0.00 | 81 | 1013.5 |
| 20260505053535 | 11 | 90 | 0.0 | 12.9 | 0.00 | 0.00 | 0.00 | 81 | 1013.4 |
| 20260505053051 | 11 | 36 | 3.2 | 12.9 | 0.00 | 0.00 | 0.00 | 81 | 1013.3 |
| 20260505052537 | 11 | 26 | 4.8 | 14.5 | 0.00 | 0.00 | 0.00 | 81 | 1013.2 |
| 20260505052038 | 11 | 32 | 0.0 | 14.5 | 0.00 | 0.00 | 0.00 | 81 | 1013.3 |
| 20260505051550 | 11 | 39 | 3.2 | 14.5 | 0.00 | 0.00 | 0.00 | 81 | 1013.2 |
| 20260505051037 | 11 | 20 | 1.6 | 12.9 | 0.00 | 0.00 | 0.00 | 81 | 1013.1 |
| 20260505050534 | 11 | 355 | 3.2 | 14.5 | 0.00 | 0.00 | 0.00 | 81 | 1013.1 |
| 20260505041555 | 12 | 0 | 1.6 | 8.0 | 0.00 | 0.00 | 0.00 | 80 | 1013.2 |
| 20260505041035 | 12 | 51 | 1.6 | 9.7 | 0.00 | 0.00 | 0.00 | 80 | 1013.2 |
| 20260505040536 | 12 | 37 | 1.6 | 9.7 | 0.00 | 0.00 | 0.00 | 80 | 1013.2 |
| 20260505040057 | 12 | 26 | 3.2 | 9.7 | 0.00 | 0.00 | 0.00 | 80 | 1013.2 |
| 20260505035535 | 12 | 24 | 3.2 | 9.7 | 0.00 | 0.00 | 0.00 | 81 | 1013.2 |
| 20260505035039 | 12 | 36 | 4.8 | 11.3 | 0.00 | 0.00 | 0.00 | 81 | 1013.2 |
| 20260505034550 | 12 | 5 | 4.8 | 11.3 | 0.00 | 0.00 | 0.00 | 81 | 1013.3 |
| 20260505034037 | 12 | 34 | 4.8 | 11.3 | 0.00 | 0.00 | 0.00 | 81 | 1013.3 |
| 20260505033536 | 12 | 40 | 3.2 | 11.3 | 0.00 | 0.00 | 0.00 | 81 | 1013.4 |
| 20260505033048 | 12 | 37 | 1.6 | 6.4 | 0.00 | 0.00 | 0.00 | 81 | 1013.5 |
| 20260505032535 | 12 | 16 | 3.2 | 6.4 | 0.00 | 0.00 | 0.00 | 81 | 1013.5 |
| 20260505032037 | 12 | 17 | 1.6 | 9.7 | 0.00 | 0.00 | 0.00 | 81 | 1013.6 |
| 20260505031548 | 12 | 26 | 3.2 | 9.7 | 0.00 | 0.00 | 0.00 | 81 | 1013.5 |
| 20260505031036 | 12 | 26 | 1.6 | 8.0 | 0.00 | 0.00 | 0.00 | 81 | 1013.5 |
| 20260505030537 | 12 | 22 | 1.6 | 8.0 | 0.00 | 0.00 | 0.00 | 81 | 1013.5 |
| 20260505030105 | 12 | 31 | 1.6 | 8.0 | 0.00 | 0.00 | 0.00 | 81 | 1013.5 |
| 20260505025537 | 12 | 26 | 0.0 | 9.7 | 0.00 | 0.00 | 0.00 | 81 | 1013.4 |
| 20260505025036 | 12 | 0 | 3.2 | 11.3 | 0.00 | 0.00 | 0.00 | 81 | 1013.5 |
| 20260505024549 | 12 | 36 | 3.2 | 11.3 | 0.00 | 0.00 | 0.00 | 80 | 1013.6 |
| 20260505024036 | 12 | 36 | 3.2 | 9.7 | 0.00 | 0.00 | 0.00 | 80 | 1013.5 |
| 20260505023537 | 12 | 50 | 1.6 | 8.0 | 0.00 | 0.00 | 0.00 | 80 | 1013.6 |
| 20260505023049 | 12 | 45 | 3.2 | 8.0 | 0.00 | 0.00 | 0.00 | 80 | 1013.5 |
| 20260505022537 | 12 | 352 | 3.2 | 16.1 | 0.00 | 0.00 | 0.00 | 80 | 1013.5 |
| 20260505022038 | 12 | 0 | 4.8 | 16.1 | 0.00 | 0.00 | 0.00 | 80 | 1013.6 |
| 20260505021546 | 12 | 42 | 4.8 | 16.1 | 0.00 | 0.00 | 0.00 | 80 | 1013.6 |
| 20260505021036 | 12 | 69 | 4.8 | 14.5 | 0.00 | 0.00 | 0.00 | 80 | 1013.5 |
| 20260505020536 | 13 | 46 | 6.4 | 14.5 | 0.00 | 0.00 | 0.00 | 80 | 1013.5 |
| 20260505020048 | 13 | 5 | 3.2 | 14.5 | 0.00 | 0.00 | 0.00 | 80 | 1013.5 |
| 20260505015536 | 13 | 68 | 3.2 | 14.5 | 0.00 | 0.00 | 0.00 | 80 | 1013.6 |
| 20260505015036 | 13 | 23 | 4.8 | 14.5 | 0.00 | 0.00 | 0.00 | 80 | 1013.6 |
| 20260505014606 | 13 | 0 | 1.6 | 9.7 | 0.00 | 0.00 | 0.00 | 80 | 1013.6 |
| 20260505014036 | 13 | 59 | 3.2 | 14.5 | 0.00 | 0.00 | 0.00 | 80 | 1013.6 |
| 20260505013536 | 13 | 59 | 3.2 | 14.5 | 0.00 | 0.00 | 0.00 | 80 | 1013.6 |
| 20260505013053 | 13 | 0 | 3.2 | 14.5 | 0.00 | 0.00 | 0.00 | 80 | 1013.7 |
| 20260505012537 | 13 | 65 | 3.2 | 9.7 | 0.00 | 0.00 | 0.00 | 80 | 1013.8 |
| 20260505012037 | 13 | 63 | 1.6 | 9.7 | 0.00 | 0.00 | 0.00 | 80 | 1013.8 |
| 20260505011546 | 13 | 59 | 3.2 | 12.9 | 0.00 | 0.00 | 0.00 | 80 | 1013.9 |
| 20260505011040 | 13 | 42 | 1.6 | 12.9 | 0.00 | 0.00 | 0.00 | 81 | 1013.8 |
| 20260505010536 | 13 | 57 | 6.4 | 16.1 | 0.00 | 0.00 | 0.00 | 80 | 1013.9 |
| 20260505010058 | 13 | 48 | 4.8 | 19.3 | 0.00 | 0.00 | 0.00 | 80 | 1014.0 |
| 20260505005539 | 13 | 0 | 6.4 | 19.3 | 0.00 | 0.00 | 0.00 | 81 | 1013.9 |
| 20260505005037 | 13 | 44 | 3.2 | 17.7 | 0.00 | 0.00 | 0.00 | 81 | 1014.0 |
| 20260505004551 | 13 | 71 | 4.8 | 17.7 | 0.00 | 0.00 | 0.00 | 81 | 1014.0 |
| 20260505004036 | 13 | 38 | 6.4 | 14.5 | 0.00 | 0.00 | 0.00 | 81 | 1014.0 |
| 20260505003536 | 13 | 60 | 4.8 | 14.5 | 0.00 | 0.00 | 0.00 | 81 | 1014.0 |
| 20260505003056 | 13 | 70 | 1.6 | 14.5 | 0.00 | 0.00 | 0.00 | 81 | 1014.1 |
| 20260505002536 | 13 | 0 | 4.8 | 14.5 | 0.00 | 0.00 | 0.00 | 81 | 1014.1 |
| 20260505002036 | 13 | 54 | 3.2 | 16.1 | 0.00 | 0.00 | 0.00 | 80 | 1014.1 |
| 20260505001549 | 13 | 38 | 3.2 | 16.1 | 0.00 | 0.00 | 0.00 | 80 | 1014.1 |
| 20260505001036 | 13 | 26 | 6.4 | 14.5 | 0.00 | 0.00 | 0.00 | 80 | 1014.2 |
| 20260505000537 | 13 | 50 | 4.8 | 14.5 | 0.00 | 0.00 | 0.00 | 80 | 1014.2 |
| 20260505000057 | 13 | 32 | 1.6 | 14.5 | 0.00 | 0.00 | 0.00 | 79 | 1014.3 |
| 20260504235539 | 13 | 40 | 6.4 | 14.5 | 0.00 | 0.00 | 0.00 | 79 | 1014.3 |
| 20260504235037 | 13 | 42 | 6.4 | 16.1 | 0.00 | 0.00 | 0.00 | 79 | 1014.3 |
| 20260504234547 | 13 | 50 | 4.8 | 16.1 | 0.00 | 0.00 | 0.00 | 79 | 1014.3 |
| 20260504234036 | 13 | 48 | 6.4 | 16.1 | 0.00 | 0.00 | 0.00 | 79 | 1014.3 |
| 20260504233536 | 13 | 44 | 3.2 | 12.9 | 0.00 | 0.00 | 0.00 | 79 | 1014.3 |
| 20260504233048 | 13 | 44 | 4.8 | 12.9 | 0.00 | 0.00 | 0.00 | 80 | 1014.3 |
| 20260504232537 | 13 | 0 | 4.8 | 14.5 | 0.00 | 0.00 | 0.00 | 80 | 1014.2 |
| 20260504232038 | 13 | 15 | 4.8 | 14.5 | 0.00 | 0.00 | 0.00 | 80 | 1014.2 |
| 20260504231542 | 13 | 37 | 4.8 | 14.5 | 0.00 | 0.00 | 0.00 | 80 | 1014.2 |
| 20260504231036 | 13 | 0 | 0.0 | 16.1 | 0.00 | 0.00 | 0.00 | 80 | 1014.3 |
| 20260504230536 | 13 | 46 | 4.8 | 16.1 | 0.00 | 0.00 | 0.00 | 80 | 1014.3 |
| 20260504230050 | 13 | 55 | 4.8 | 16.1 | 0.00 | 0.00 | 0.00 | 79 | 1014.2 |
| 20260504225536 | 13 | 0 | 4.8 | 12.9 | 0.00 | 0.00 | 0.00 | 79 | 1014.2 |
| 20260504225036 | 13 | 355 | 4.8 | 12.9 | 0.00 | 0.00 | 0.00 | 80 | 1014.3 |
| 20260504224548 | 13 | 46 | 4.8 | 12.9 | 0.00 | 0.00 | 0.00 | 80 | 1014.3 |
| 20260504224037 | 13 | 15 | 1.6 | 9.7 | 0.00 | 0.00 | 0.00 | 80 | 1014.2 |
| 20260504223535 | 14 | 34 | 1.6 | 11.3 | 0.00 | 0.00 | 0.00 | 80 | 1014.2 |
| 20260504223101 | 14 | 26 | 3.2 | 11.3 | 0.00 | 0.00 | 0.00 | 80 | 1014.3 |
| 20260504222535 | 14 | 0 | 3.2 | 8.0 | 0.00 | 0.00 | 0.00 | 80 | 1014.3 |
| 20260504222034 | 14 | 44 | 1.6 | 9.7 | 0.00 | 0.00 | 0.00 | 80 | 1014.3 |
| 20260504221551 | 14 | 56 | 3.2 | 9.7 | 0.00 | 0.00 | 0.00 | 80 | 1014.4 |
| 20260504221036 | 14 | 66 | 3.2 | 8.0 | 0.00 | 0.00 | 0.00 | 80 | 1014.3 |
| 20260504220534 | 14 | 48 | 3.2 | 8.0 | 0.00 | 0.00 | 0.00 | 80 | 1014.4 |
| 20260504220050 | 14 | 35 | 1.6 | 8.0 | 0.00 | 0.00 | 0.00 | 80 | 1014.5 |
| 20260504215534 | 14 | 0 | 1.6 | 14.5 | 0.00 | 0.00 | 0.00 | 80 | 1014.5 |
| 20260504215036 | 14 | 72 | 3.2 | 14.5 | 0.00 | 0.00 | 0.00 | 79 | 1014.5 |
| 20260504214547 | 14 | 49 | 6.4 | 14.5 | 0.00 | 0.00 | 0.00 | 79 | 1014.5 |
| 20260504214038 | 14 | 64 | 4.8 | 14.5 | 0.00 | 0.00 | 0.00 | 79 | 1014.4 |
| 20260504213536 | 14 | 80 | 4.8 | 14.5 | 0.00 | 0.00 | 0.00 | 79 | 1014.5 |
| 20260504213050 | 14 | 71 | 6.4 | 14.5 | 0.00 | 0.00 | 0.00 | 79 | 1014.5 |
| 20260504212538 | 14 | 84 | 4.8 | 12.9 | 0.00 | 0.00 | 0.00 | 78 | 1014.4 |
| 20260504212033 | 14 | 75 | 6.4 | 12.9 | 0.00 | 0.00 | 0.00 | 78 | 1014.4 |
| 20260504211634 | 14 | 63 | 4.8 | 12.9 | 0.00 | 0.00 | 0.00 | 77 | 1014.3 |
| 20260504211033 | 14 | 34 | 1.6 | 6.4 | 0.00 | 0.00 | 0.00 | 76 | 1014.3 |
| 20260504210535 | 14 | 163 | 0.0 | 3.2 | 0.00 | 0.00 | 0.00 | 76 | 1014.3 |
| 20260504210050 | 14 | 0 | 0.0 | 0.0 | 0.00 | 0.00 | 0.00 | 76 | 1014.4 |
| 20260504205537 | 14 | 0 | 0.0 | 0.0 | 0.00 | 0.00 | 0.00 | 75 | 1014.4 |
| 20260504205035 | 14 | 0 | 0.0 | 0.0 | 0.00 | 0.00 | 0.00 | 75 | 1014.3 |
| 20260504204550 | 14 | 0 | 0.0 | 4.8 | 0.00 | 0.00 | 0.00 | 75 | 1014.3 |
| 20260504204036 | 14 | 0 | 0.0 | 6.4 | 0.00 | 0.00 | 0.00 | 75 | 1014.3 |
| 20260504203534 | 14 | 0 | 3.2 | 6.4 | 0.00 | 0.00 | 0.00 | 75 | 1014.4 |
| 20260504203049 | 14 | 0 | 0.0 | 4.8 | 0.00 | 0.00 | 0.00 | 74 | 1014.2 |
| 20260504202536 | 15 | 211 | 1.6 | 4.8 | 0.00 | 0.00 | 0.00 | 74 | 1014.3 |
| 20260504202033 | 15 | 211 | 0.0 | 4.8 | 0.00 | 0.00 | 0.00 | 74 | 1014.2 |
| 20260504201544 | 15 | 211 | 1.6 | 4.8 | 0.00 | 0.00 | 0.00 | 73 | 1014.3 |
| 20260504201035 | 15 | 211 | 1.6 | 4.8 | 0.00 | 0.00 | 0.00 | 73 | 1014.2 |
| 20260504200536 | 15 | 211 | 0.0 | 4.8 | 0.00 | 0.00 | 0.00 | 73 | 1014.1 |
| 20260504200052 | 15 | 211 | 1.6 | 4.8 | 0.00 | 0.00 | 0.00 | 73 | 1014.1 |
| 20260504195533 | 15 | 211 | 1.6 | 6.4 | 0.00 | 0.00 | 0.00 | 73 | 1014.1 |
| 20260504195034 | 15 | 211 | 1.6 | 6.4 | 0.00 | 0.00 | 0.00 | 73 | 1014.2 |
| 20260504194551 | 15 | 211 | 1.6 | 6.4 | 0.00 | 0.00 | 0.00 | 72 | 1014.1 |
| 20260504194037 | 15 | 224 | 3.2 | 8.0 | 0.00 | 0.00 | 0.00 | 72 | 1014.0 |
| 20260504193537 | 15 | 224 | 3.2 | 8.0 | 0.00 | 0.00 | 0.00 | 72 | 1013.9 |
| 20260504193053 | 15 | 219 | 4.8 | 8.0 | 0.00 | 0.00 | 0.00 | 72 | 1013.8 |
| 20260504192537 | 16 | 255 | 3.2 | 6.4 | 0.00 | 0.00 | 0.00 | 71 | 1013.8 |
| 20260504192034 | 16 | 239 | 3.2 | 6.4 | 0.00 | 0.00 | 0.00 | 71 | 1013.8 |
| 20260504191601 | 16 | 239 | 1.6 | 6.4 | 0.00 | 0.00 | 0.00 | 71 | 1013.9 |
| 20260504191034 | 16 | 240 | 3.2 | 8.0 | 0.00 | 0.00 | 0.00 | 71 | 1013.9 |
| 20260504190534 | 16 | 213 | 3.2 | 8.0 | 0.00 | 0.00 | 0.00 | 71 | 1013.9 |
| 20260504190106 | 16 | 236 | 3.2 | 9.7 | 0.00 | 0.00 | 0.00 | 71 | 1013.9 |
| 20260504185537 | 16 | 246 | 3.2 | 9.7 | 0.00 | 0.00 | 0.00 | 71 | 1013.8 |
| 20260504185034 | 16 | 208 | 3.2 | 6.4 | 0.00 | 0.00 | 0.00 | 71 | 1013.8 |
| 20260504184552 | 16 | 219 | 4.8 | 6.4 | 0.00 | 0.00 | 0.00 | 71 | 1013.8 |
| 20260504184036 | 16 | 225 | 0.0 | 6.4 | 0.00 | 0.00 | 0.00 | 70 | 1013.8 |
| 20260504183536 | 16 | 221 | 3.2 | 9.7 | 0.00 | 0.00 | 0.00 | 70 | 1013.8 |
| 20260504183050 | 16 | 257 | 3.2 | 9.7 | 0.00 | 0.00 | 0.00 | 69 | 1013.7 |
| 20260504182538 | 16 | 215 | 3.2 | 9.7 | 0.00 | 0.00 | 0.00 | 69 | 1013.8 |
| 20260504182036 | 16 | 219 | 3.2 | 11.3 | 0.00 | 0.00 | 0.00 | 68 | 1013.7 |
| 20260504181542 | 17 | 217 | 6.4 | 12.9 | 0.00 | 0.00 | 0.00 | 68 | 1013.7 |
| 20260504181037 | 17 | 256 | 4.8 | 12.9 | 0.00 | 0.00 | 0.00 | 66 | 1013.7 |
| 20260504180537 | 17 | 240 | 1.6 | 11.3 | 0.00 | 0.00 | 0.00 | 66 | 1013.7 |
| 20260504180053 | 17 | 263 | 3.2 | 11.3 | 0.00 | 0.00 | 0.00 | 66 | 1013.6 |
| 20260504175534 | 17 | 232 | 3.2 | 8.0 | 0.00 | 0.00 | 0.00 | 65 | 1013.6 |
| 20260504175036 | 17 | 269 | 4.8 | 8.0 | 0.00 | 0.00 | 0.00 | 65 | 1013.6 |
| 20260504174548 | 17 | 0 | 0.0 | 11.3 | 0.00 | 0.00 | 0.00 | 64 | 1013.6 |
| 20260504174034 | 18 | 0 | 0.0 | 11.3 | 0.00 | 0.00 | 0.00 | 63 | 1013.6 |
| 20260504173535 | 18 | 259 | 0.0 | 9.7 | 0.00 | 0.00 | 0.00 | 64 | 1013.6 |
| 20260504173054 | 17 | 0 | 3.2 | 9.7 | 0.00 | 0.00 | 0.00 | 64 | 1013.5 |
| 20260504172533 | 18 | 202 | 1.6 | 9.7 | 0.00 | 0.00 | 0.00 | 64 | 1013.5 |
| 20260504172036 | 17 | 245 | 0.0 | 9.7 | 0.00 | 0.00 | 0.00 | 65 | 1013.5 |
| 20260504171547 | 18 | 213 | 0.0 | 9.7 | 0.00 | 0.00 | 0.00 | 63 | 1013.5 |
| 20260504171033 | 18 | 0 | 0.0 | 9.7 | 0.00 | 0.00 | 0.00 | 62 | 1013.5 |
| 20260504170536 | 18 | 233 | 0.0 | 9.7 | 0.00 | 0.00 | 0.00 | 64 | 1013.5 |